CZ-6A DEB

Satellite information

Favourite Embed

Satellite Type and Status

DEBRISIN ORBIT

Key statistics

Satellite CZ-6A DEB at a glance.

Uptime

1024

Days in orbit

Revolutions

≈ 14.2

Per day

Orbit

SSO

Sun Synchronous Orbit

Inclination

98.8

Latest

Satellite identification and parameters

Extended collection of information and parameters for CZ-6A DEB.

Object identification

Identified? True

Debris? True

Object name: CZ-6A DEB

International designator: 2022-151AY

Object number (NORAD): 54305

Object ID (CCSDS): 54305

Country: PEOPLES REPUBLIC OF CHINA (PRC)

Current information (Y/N): Y

RCS size: SMALL

Orbital parameters

Period: 101.099 minutes

Inclination: 98.7812 deg

SMA: 7188.815 km

Apoapsis: 850.286 km

Periapsis: 771.073 km

RAAN: 264.0266 deg

Eccentricy: 0.00550942

Argument of periapsis: 113.2591 deg

Mean anomaly: 247.4401 deg

Mean motion: 14.24350387 rev/day

Mean motion (dot): 0.0000046 rev/day2

B* drag term: 0.0002146043 1/REarth

Two-line elements (TLE)

Creation date: Aug. 30, 2025, 11:24 a.m.

Reference frame: TEME

Reference center: EARTH

Epoch: Aug. 29, 2025, 11:44 p.m. UTC

TLE line 0: 0 CZ-6A DEB

TLE line 1: 1 54305U 22151AY 25241.98945781 .00000460 00000-0 21460-3 0 9999

TLE line 2: 2 54305 98.7812 264.0266 0055094 113.2591 247.4401 14.24350387144845

Live tracking on map

Real-time ground track for satellite CZ-6A DEB.

In-orbit conjunctions

A list of the most updated potential collisions computed for object CZ-6A DEB.

Target Orbit TCA Probability of collision Miss distance Type
METEOR 2-1 LEO 2024-08-14 00:37:20 0.000428855 414.0 (m) PAYLOAD

Associated space launch

Chinese satellite reported for atmospheric/ocean/environmental/spatial parameter research purposes, details TBD.

CZ-6A DEB was lifted into orbit during the mission ‘Long March 6A | Yunhai 3’, on board a Long March 6A space rocket.

The launch took place on Nov. 11, 2022, 10:52 p.m. from Launch Complex 9A.

For more information about the launch, click the button.

Launch to space Long March 6A | Yunhai 3
Long March 6A | Yunhai 3

Agency: N/A

Status: Launch Successful

Launch date: Nov. 11, 2022, 10:52 p.m. UTC

Rocket: Long March 6A

Launch pad: Launch Complex 9A

Location: Taiyuan Satellite Launch Center, People's Republic of China

...

Latest news about this satellite

There are no fresh news available about this satellite. Check back as we update our databases every day.


Newsletter sign-up

Weekly statistics, charts and insights to help you stay on top of the space industry.